TimeEDT,TemperatureF,Dew PointF,Humidity,Sea Level PressureIn,VisibilityMPH,Wind Direction,Wind SpeedMPH,Gust SpeedMPH,PrecipitationIn,Events,Conditions,WindDirDegrees,DateUTC
12:15 AM,35.6,35.6,100,29.42,3.0,Calm,Calm,-,N/A,Rain,Light Rain,0,2013-03-25 04:15:00
12:55 AM,35.6,35.6,100,29.43,3.0,Calm,Calm,-,N/A,,Overcast,0,2013-03-25 04:55:00
1:15 AM,37.4,35.6,93,29.43,3.0,SSW,4.6,-,N/A,,Overcast,210,2013-03-25 05:15:00
1:35 AM,37.4,35.6,93,29.44,4.0,WSW,3.5,-,N/A,,Overcast,240,2013-03-25 05:35:00
1:55 AM,37.4,35.6,93,29.44,4.0,SW,6.9,-,N/A,,Overcast,230,2013-03-25 05:55:00
2:15 AM,37.4,37.4,100,29.44,10.0,SW,6.9,-,N/A,,Overcast,220,2013-03-25 06:15:00
2:35 AM,39.2,37.4,93,29.44,10.0,WSW,8.1,-,N/A,,Overcast,240,2013-03-25 06:35:00
2:55 AM,39.2,37.4,93,29.45,10.0,WSW,5.8,-,N/A,,Overcast,240,2013-03-25 06:55:00
3:15 AM,39.2,37.4,93,29.45,10.0,SW,5.8,-,N/A,Rain,Light Rain,230,2013-03-25 07:15:00
3:35 AM,41.0,37.4,87,29.45,10.0,SW,10.4,-,N/A,Rain,Light Rain,230,2013-03-25 07:35:00
3:55 AM,41.0,37.4,87,29.45,7.0,WSW,9.2,17.3,N/A,Rain,Light Rain,240,2013-03-25 07:55:00
4:15 AM,41.0,37.4,87,29.45,7.0,SW,12.7,21.9,N/A,Rain,Light Rain,230,2013-03-25 08:15:00
4:35 AM,39.2,35.6,87,29.46,10.0,WSW,15.0,21.9,N/A,,Light Drizzle,240,2013-03-25 08:35:00
4:55 AM,39.2,33.8,81,29.46,10.0,WSW,19.6,26.5,N/A,,Overcast,240,2013-03-25 08:55:00
5:15 AM,37.4,33.8,87,29.47,10.0,SW,13.8,19.6,N/A,,Light Drizzle,230,2013-03-25 09:15:00
5:35 AM,37.4,33.8,87,29.48,10.0,SW,11.5,20.7,N/A,,Light Drizzle,230,2013-03-25 09:35:00
5:55 AM,37.4,33.8,87,29.48,7.0,SW,13.8,18.4,N/A,Rain,Light Rain,220,2013-03-25 09:55:00
6:15 AM,35.6,33.8,93,29.49,10.0,SW,12.7,18.4,N/A,,Overcast,230,2013-03-25 10:15:00
6:35 AM,35.6,32.0,87,29.49,10.0,SW,11.5,17.3,N/A,,Overcast,230,2013-03-25 10:35:00
7:15 AM,35.6,32.0,87,29.49,7.0,SW,10.4,17.3,N/A,Snow,Light Snow,230,2013-03-25 11:15:00
7:35 AM,35.6,32.0,87,29.50,5.0,SW,10.4,-,N/A,Snow,Light Snow,230,2013-03-25 11:35:00
7:55 AM,35.6,32.0,87,29.50,5.0,SW,11.5,17.3,N/A,Snow,Light Snow,220,2013-03-25 11:55:00
8:15 AM,35.6,32.0,87,29.51,3.0,SW,8.1,16.1,N/A,Snow,Light Snow,220,2013-03-25 12:15:00
8:35 AM,35.6,32.0,87,29.51,2.5,SW,9.2,-,N/A,Snow,Light Snow,220,2013-03-25 12:35:00
8:55 AM,35.6,32.0,87,29.51,4.0,SSW,8.1,-,N/A,,Overcast,210,2013-03-25 12:55:00
9:15 AM,35.6,32.0,87,29.51,7.0,SW,8.1,-,N/A,,Overcast,220,2013-03-25 13:15:00
9:35 AM,35.6,33.8,93,29.52,3.0,SW,8.1,-,N/A,Snow,Light Snow,220,2013-03-25 13:35:00
9:55 AM,35.6,33.8,93,29.52,5.0,SW,9.2,-,N/A,Snow,Light Snow,220,2013-03-25 13:55:00
10:15 AM,35.6,33.8,93,29.52,2.5,WSW,9.2,16.1,N/A,Snow,Light Snow,240,2013-03-25 14:15:00
10:35 AM,35.6,33.8,93,29.53,1.5,SW,8.1,-,N/A,Snow,Light Snow,230,2013-03-25 14:35:00
10:55 AM,35.6,33.8,93,29.54,1.5,SW,10.4,-,N/A,Rain,Light Rain,230,2013-03-25 14:55:00
11:15 AM,37.4,33.8,87,29.54,4.0,WSW,15.0,20.7,N/A,Rain,Light Rain,250,2013-03-25 15:15:00
11:35 AM,37.4,33.8,87,29.55,4.0,WSW,13.8,19.6,N/A,Snow,Light Snow,240,2013-03-25 15:35:00
11:55 AM,35.6,33.8,93,29.56,4.0,WSW,11.5,19.6,N/A,Snow,Light Snow,240,2013-03-25 15:55:00
12:15 PM,35.6,33.8,93,29.57,2.0,WSW,12.7,18.4,N/A,Snow,Light Snow,250,2013-03-25 16:15:00
12:35 PM,35.6,32.0,87,29.58,1.0,WSW,11.5,18.4,N/A,Snow,Light Snow,240,2013-03-25 16:35:00
12:55 PM,35.6,33.8,93,29.58,1.8,WSW,9.2,-,N/A,Snow,Light Snow,240,2013-03-25 16:55:00
1:15 PM,35.6,32.0,87,29.59,1.2,WSW,8.1,20.7,N/A,Snow,Light Snow,250,2013-03-25 17:15:00
1:35 PM,35.6,33.8,93,29.59,3.0,West,10.4,17.3,N/A,Snow,Light Snow,260,2013-03-25 17:35:00
1:55 PM,35.6,32.0,87,29.60,1.5,West,11.5,20.7,N/A,Snow,Light Snow,260,2013-03-25 17:55:00
2:15 PM,35.6,32.0,87,29.60,3.0,WSW,9.2,18.4,N/A,Snow,Light Snow,250,2013-03-25 18:15:00
2:35 PM,35.6,32.0,87,29.61,7.0,WSW,12.7,20.7,N/A,,Overcast,240,2013-03-25 18:35:00
2:55 PM,35.6,32.0,87,29.62,7.0,West,11.5,16.1,N/A,,Overcast,260,2013-03-25 18:55:00
3:15 PM,35.6,32.0,87,29.63,10.0,WSW,12.7,16.1,N/A,,Overcast,240,2013-03-25 19:15:00
3:35 PM,35.6,32.0,87,29.63,4.0,WSW,11.5,18.4,N/A,,Haze,250,2013-03-25 19:35:00
3:55 PM,35.6,32.0,87,29.64,5.0,WSW,10.4,-,N/A,Snow,Light Snow,250,2013-03-25 19:55:00
4:15 PM,35.6,32.0,87,29.65,5.0,WSW,11.5,18.4,N/A,Snow,Light Snow,250,2013-03-25 20:15:00
4:35 PM,35.6,32.0,87,29.66,7.0,WSW,13.8,19.6,N/A,Snow,Light Snow,240,2013-03-25 20:35:00
4:55 PM,35.6,32.0,87,29.66,10.0,WSW,9.2,18.4,N/A,,Overcast,250,2013-03-25 20:55:00
5:15 PM,35.6,32.0,87,29.67,10.0,WSW,9.2,17.3,N/A,,Overcast,250,2013-03-25 21:15:00
5:35 PM,35.6,32.0,87,29.68,7.0,WSW,9.2,17.3,N/A,Snow,Light Snow,250,2013-03-25 21:35:00
5:55 PM,35.6,32.0,87,29.69,7.0,WSW,11.5,-,N/A,Snow,Light Snow,240,2013-03-25 21:55:00
6:15 PM,35.6,32.0,87,29.70,5.0,WSW,9.2,-,N/A,Snow,Light Snow,250,2013-03-25 22:15:00
6:35 PM,35.6,32.0,87,29.71,5.0,WSW,6.9,16.1,N/A,Snow,Light Snow,250,2013-03-25 22:35:00
6:55 PM,35.6,32.0,87,29.72,5.0,WSW,9.2,16.1,N/A,Snow,Light Snow,250,2013-03-25 22:55:00
7:15 PM,35.6,32.0,87,29.74,4.0,WSW,6.9,-,N/A,Snow,Light Snow,250,2013-03-25 23:15:00
7:35 PM,35.6,32.0,87,29.75,4.0,WSW,8.1,-,N/A,Snow,Light Snow,250,2013-03-25 23:35:00
7:55 PM,35.6,32.0,87,29.76,5.0,WSW,8.1,-,N/A,Snow,Light Snow,240,2013-03-25 23:55:00
8:15 PM,35.6,32.0,87,29.77,5.0,West,8.1,-,N/A,Snow,Light Snow,270,2013-03-26 00:15:00
8:35 PM,35.6,32.0,87,29.79,5.0,West,4.6,-,N/A,Snow,Light Snow,260,2013-03-26 00:35:00
8:55 PM,35.6,32.0,87,29.79,5.0,WSW,5.8,-,N/A,Snow,Light Snow,250,2013-03-26 00:55:00
9:15 PM,35.6,32.0,87,29.80,5.0,West,5.8,-,N/A,Snow,Light Snow,270,2013-03-26 01:15:00
9:35 PM,35.6,32.0,87,29.82,5.0,Calm,Calm,-,N/A,Snow,Light Snow,0,2013-03-26 01:35:00
9:55 PM,35.6,32.0,87,29.82,7.0,West,4.6,-,N/A,Snow,Light Snow,270,2013-03-26 01:55:00
10:15 PM,35.6,32.0,87,29.83,5.0,West,9.2,-,N/A,Snow,Light Snow,270,2013-03-26 02:15:00
10:35 PM,35.6,32.0,87,29.84,7.0,West,5.8,-,N/A,Snow,Light Snow,280,2013-03-26 02:35:00
10:55 PM,35.6,32.0,87,29.84,10.0,West,6.9,-,N/A,,Overcast,280,2013-03-26 02:55:00
11:15 PM,35.6,32.0,87,29.85,10.0,WNW,3.5,-,N/A,,Overcast,290,2013-03-26 03:15:00
11:35 PM,35.6,32.0,87,29.86,10.0,West,4.6,-,N/A,Snow,Light Snow,270,2013-03-26 03:35:00
11:55 PM,35.6,32.0,87,29.86,7.0,West,6.9,-,N/A,Snow,Light Snow,270,2013-03-26 03:55:00